CAPE
0 0 48 523 905 1185 2057 2408 2325 2577 2215 2119 2224 1843 1413 922 798 337 31 0 0 0 0 0 0 0 0 0 0 0 0 0 0 0 0 0 0 0 0 5 0 0 0
0 0 53 806 1264 1395 1961 2315 2259 2137 1954 2048 1811 1398 802 321 74 0 0 0 0 0 0 0 0 0 0 0 0 0 0 0 0 0 0 0 0 0 0 0 0 0 0
0 0 0 1018 1246 1557 2044 2156 2153 1782 1494 1453 1326 721 366 108 0 0 0 0 0 0 0 0 0 0 0 0 0 0 0 0 0 0 0 0 0 0 0 0 0 0 0
0 0 0 397 1055 1283 1955 2371 2102 1831 2032 1657 1096 208 54 0 0 0 0 0 0 0 0 0 0 0 0 0 0 0 0 0 0 0 0 0 0 0 0 0 0 1 2
0 0 0 56 772 1154 1741 2072 1993 1863 2132 1833 981 379 19 0 0 0 0 0 0 0 0 0 0 0 0 0 0 0 0 0 0 0 0 0 0 1 2 0 0 0 0
4 0 0 0 509 1549 1980 2044 1851 1961 1914 1152 553 249 103 0 0 0 0 0 0 0 0 0 0 0 0 0 0 0 0 0 0 0 0 0 0 0 12 14 13 12 8
1 4 4 8 421 812 1357 1144 1444 1016 610 370 127 35 0 0 0 0 0 0 0 0 0 0 0 0 0 0 0 0 0 0 6 2 0 0 3 8 14 24 23 29 14
1 9 43 31 322 755 1041 379 301 278 4 0 0 0 0 0 0 0 0 0 0 0 0 0 0 0 0 0 0 0 0 6 5 4 6 7 6 20 14 9 46 39 34
4 0 25 62 262 602 294 5 8 0 0 0 0 0 0 0 0 0 0 0 0 0 0 0 0 0 0 0 0 0 0 2 9 17 15 7 8 20 16 21 29 78 82
5 0 14 21 203 142 7 9 0 0 0 0 0 0 0 0 0 0 0 0 0 0 0 0 0 0 0 0 0 0 0 1 2 2 3 7 8 9 13 43 43 67 81
2 0 3 27 36 10 13 6 0 0 0 0 0 0 0 0 0 0 0 0 0 0 0 0 0 0 0 0 0 0 0 0 0 5 5 5 9 8 10 34 26 24 39
0 1 8 47 40 0 1 0 0 0 0 0 0 0 0 0 0 0 0 0 0 0 0 0 0 0 0 0 0 0 0 0 2 3 4 3 2 6 12 32 31 12 26
16 18 5 38 50 0 0 0 0 0 0 0 0 0 0 0 0 0 0 0 0 0 0 0 0 0 0 0 0 0 0 1 2 2 5 6 7 7 17 20 8 12 16
1 1 0 12 2 0 0 0 0 0 0 0 0 0 0 0 0 0 0 0 0 0 0 0 0 0 0 0 0 0 1 1 1 4 7 6 8 10 2 5 10 12 23
0 0 0 0 0 0 0 0 0 0 0 0 0 0 0 0 0 0 0 0 0 0 0 0 0 0 0 0 0 0 0 0 0 1 2 4 1 0 1 7 13 13 20
0 0 0 0 0 0 0 0 0 0 0 0 0 0 0 0 0 0 0 0 0 0 0 0 0 1 0 0 0 0 0 0 1 4 6 5 5 5 0 0 0 0 21
0 0 6 0 0 0 0 0 0 0 0 0 0 0 0 0 0 0 0 0 0 0 0 0 0 3 0 0 0 0 0 1 3 6 10 3 5 2 18 10 1 6 4
0 0 2 0 0 0 0 0 0 0 0 0 0 0 0 0 0 0 0 0 0 0 2 2 1 1 0 0 0 0 0 1 2 5 6 7 11 13 11 11 14 17 20
0 0 0 0 0 0 0 0 0 0 0 0 0 0 0 0 0 0 0 0 0 1 1 0 1 2 1 0 0 0 0 1 2 2 5 7 15 5 4 7 10 8 11
0 0 0 0 0 0 0 0 0 0 0 0 0 0 0 0 0 0 0 0 0 0 0 0 0 0 0 0 0 0 0 1 3 4 4 3 0 0 0 8 9 10 7
22 0 0 0 0 0 0 0 0 0 0 0 0 0 0 0 0 0 0 0 0 0 0 0 0 0 0 0 0 0 0 2 7 6 10 9 2 0 0 0 9 7 2
0 0 0 0 0 0 0 0 0 0 0 0 0 0 0 0 0 1 1 1 0 0 0 0 0 0 0 0 0 0 0 0 9 10 18 21 0 0 0 0 1 0 0
0 0 0 0 0 0 0 0 0 0 0 0 0 0 0 0 0 4 1 4 0 1 0 0 0 0 0 1 0 0 0 0 6 11 8 0 0 0 3 13 0 0 2
0 0 0 0 0 0 0 0 0 0 0 0 0 0 0 0 2 3 3 9 14 6 0 1 1 1 0 1 1 0 1 3 6 1 1 3 0 1 2 3 9 10 13
0 0 0 0 0 0 0 0 0 0 0 0 0 1 0 0 2 2 9 7 4 1 2 1 0 5 4 3 0 0 0 2 4 4 11 4 11 24 16 10 13 14 16
0 0 0 0 0 0 0 0 0 0 0 1 5 6 7 5 9 2 1 0 0 0 0 0 0 1 0 0 0 0 0 0 1 5 6 3 5 22 25 14 12 14 17
CIN
-0 -0 -3 -2 -18 -1 -0 -5 -22 -19 -29 -26 -7 -12 -21 -35 -30 -76 -209 -0 -0 -0 -0 -0 -0 -0 -0 -0 -0 -0 -0 -0 -0 -0 -0 -0 -0 -0 -0 -0 -0 -0 -0
-0 -0 -0 -13 -23 -4 -3 -0 -11 -39 -57 -34 -19 -26 -63 -98 -143 -0 -0 -0 -0 -0 -0 -0 -0 -0 -0 -0 -0 -0 -0 -0 -0 -0 -0 -0 -0 -0 -0 -0 -0 -0 -0
-0 -0 -0 -10 -28 -18 -9 -2 -7 -57 -80 -65 -36 -94 -123 -49 -0 -0 -0 -0 -0 -0 -0 -0 -0 -0 -0 -0 -0 -0 -0 -0 -0 -0 -0 -0 -0 -0 -0 -0 -0 -0 -0
-0 -0 -0 -13 -42 -38 -2 -3 -12 -39 -10 -34 -70 -207 -213 -0 -0 -0 -0 -0 -0 -0 -0 -0 -0 -0 -0 -0 -0 -0 -0 -0 -0 -0 -0 -0 -0 -0 -0 -0 -0 -0 -0
-0 -0 -0 -50 -55 -22 -7 -17 -12 -17 -0 -14 -71 -132 -201 -0 -0 -0 -0 -0 -0 -0 -0 -0 -0 -0 -0 -0 -0 -0 -0 -0 -0 -0 -0 -0 -0 -0 -0 -0 -0 -0 -0
-114 -0 -0 -0 -63 -6 -1 -6 -7 -8 -0 -40 -90 -131 -123 -0 -0 -0 -0 -0 -0 -0 -0 -0 -0 -0 -0 -0 -0 -0 -0 -0 -0 -0 -0 -0 -0 -0 -0 -0 -0 -0 -0
-62 -86 -52 -76 -49 -48 -39 -70 -20 -58 -82 -105 -163 -202 -0 -0 -0 -0 -0 -0 -0 -0 -0 -0 -0 -0 -0 -0 -0 -0 -0 -0 -0 -0 -0 -0 -0 -0 -0 -0 -0 -0 -0
-85 -95 -91 -66 -16 -31 -61 -164 -147 -163 -102 -0 -0 -0 -0 -0 -0 -0 -0 -0 -0 -0 -0 -0 -0 -0 -0 -0 -0 -0 -0 -0 -0 -0 -0 -0 -0 -0 -0 -0 -0 -0 -0
-97 -0 -78 -59 -0 -10 -122 -0 -0 -0 -0 -0 -0 -0 -0 -0 -0 -0 -0 -0 -0 -0 -0 -0 -0 -0 -0 -0 -0 -0 -0 -0 -0 -0 -0 -0 -0 -0 -0 -0 -0 -0 -0
-132 -0 -98 -50 -8 -40 -30 -0 -0 -0 -0 -0 -0 -0 -0 -0 -0 -0 -0 -0 -0 -0 -0 -0 -0 -0 -0 -0 -0 -0 -0 -0 -0 -0 -0 -0 -0 -0 -0 -0 -0 -0 -0
-134 -0 -36 -46 -56 -45 -0 -0 -0 -0 -0 -0 -0 -0 -0 -0 -0 -0 -0 -0 -0 -0 -0 -0 -0 -0 -0 -0 -0 -0 -0 -0 -0 -0 -0 -0 -0 -0 -0 -0 -0 -0 -0
-0 -47 -151 -119 -149 -7 -0 -0 -0 -0 -0 -0 -0 -0 -0 -0 -0 -0 -0 -0 -0 -0 -0 -0 -0 -0 -0 -0 -0 -0 -0 -0 -0 -0 -0 -0 -0 -0 -0 -0 -0 -1 -0
-127 -142 -161 -164 -242 -0 -0 -0 -0 -0 -0 -0 -0 -0 -0 -0 -0 -0 -0 -0 -0 -0 -0 -0 -0 -0 -0 -0 -0 -0 -0 -0 -0 -0 -0 -0 -0 -0 -0 -0 -0 -0 -0
-66 -45 -0 -185 -119 -0 -0 -0 -0 -0 -0 -0 -0 -0 -0 -0 -0 -0 -0 -0 -0 -0 -0 -0 -0 -0 -0 -0 -0 -0 -0 -0 -0 -0 -0 -0 -0 -0 -0 -0 -0 -0 -0
-0 -0 -0 -0 -0 -0 -0 -0 -0 -0 -0 -0 -0 -0 -0 -0 -0 -0 -0 -0 -0 -0 -0 -0 -0 -0 -0 -0 -0 -0 -0 -0 -0 -0 -0 -0 -0 -0 -0 -0 -0 -0 -0
-0 -0 -0 -0 -0 -0 -0 -0 -0 -0 -0 -0 -0 -0 -0 -0 -0 -0 -0 -0 -0 -0 -0 -0 -0 -0 -0 -0 -0 -0 -0 -0 -0 -0 -0 -0 -0 -0 -0 -1 -0 -0 -0
-0 -0 -170 -0 -0 -0 -0 -0 -0 -0 -0 -0 -0 -0 -0 -0 -0 -0 -0 -0 -0 -0 -0 -0 -0 -0 -0 -0 -0 -0 -0 -0 -0 -0 -0 -0 -0 -0 -0 -0 -0 -2 -2
-0 -0 -62 -0 -0 -0 -0 -0 -0 -0 -0 -0 -0 -0 -0 -0 -0 -0 -0 -0 -0 -0 -0 -0 -0 -0 -0 -0 -0 -0 -0 -0 -0 -0 -0 -0 -0 -0 -2 -0 -0 -0 -0
-0 -0 -0 -0 -0 -0 -0 -0 -0 -0 -0 -0 -0 -0 -0 -0 -0 -0 -0 -0 -0 -0 -0 -0 -0 -0 -0 -0 -0 -0 -0 -0 -0 -0 -0 -0 -0 -1 -6 -1 -0 -0 -0
-0 -0 -0 -0 -0 -0 -0 -0 -0 -0 -0 -0 -0 -0 -0 -0 -0 -0 -0 -0 -0 -0 -0 -0 -0 -0 -0 -0 -0 -0 -0 -0 -0 -0 -0 -0 -0 -0 -5 -0 -0 -0 -0
-0 -0 -2 -0 -0 -0 -0 -0 -0 -0 -0 -0 -0 -0 -0 -0 -0 -0 -0 -0 -0 -0 -0 -0 -0 -0 -0 -0 -0 -0 -0 -0 -0 -0 -0 -0 -3 -0 -0 -0 -0 -0 -0
-0 -0 -0 -0 -0 -0 -0 -0 -0 -0 -0 -0 -0 -0 -0 -0 -0 -0 -0 -0 -0 -0 -0 -0 -0 -0 -0 -0 -0 -0 -0 -0 -0 -0 -0 -0 -0 -0 -0 -0 -7 -0 -0
-0 -0 -0 -0 -0 -0 -0 -0 -0 -0 -0 -0 -0 -0 -0 -0 -0 -0 -0 -0 -0 -0 -0 -0 -0 -0 -0 -0 -0 -0 -0 -0 -0 -0 -0 -0 -0 -0 -5 -1 -0 -0 -0
-0 -0 -0 -0 -0 -0 -0 -0 -0 -0 -0 -0 -0 -0 -0 -0 -0 -0 -0 -0 -0 -0 -0 -0 -0 -0 -0 -0 -0 -0 -0 -0 -0 -0 -0 -0 -0 -0 -5 -2 -1 -0 -0
-0 -0 -0 -0 -0 -0 -0 -0 -0 -0 -0 -0 -0 -0 -0 -0 -0 -0 -0 -0 -0 -0 -0 -0 -0 -0 -0 -0 -0 -0 -0 -0 -0 -1 -0 -0 -0 -0 -0 -0 -0 -0 -0
-0 -0 -0 -0 -0 -0 -0 -0 -0 -0 -0 -0 -0 -0 -0 -0 -0 -0 -0 -0 -0 -0 -0 -0 -0 -0 -0 -0 -0 -0 -0 -0 -1 -0 -0 -0 -0 -0 -0 -0 -0 -0 -0
Wind_Speed
17 17 20 14 16 15 17 19 19 16 11 10 10 9 11 9 9 8 10 9 7 6 4 4 4 1 2 3 2 3 5 5 6 7 8 9 10 7 8 7 10 13 10
18 19 16 17 16 17 18 20 19 16 12 10 10 10 10 10 9 9 9 9 8 6 5 4 3 1 4 3 3 4 4 4 5 6 9 6 8 7 11 9 7 11 9
21 20 21 20 19 19 20 21 20 17 14 13 11 10 7 9 9 9 8 8 8 6 6 5 5 4 1 3 3 3 5 5 6 5 5 6 5 9 9 10 9 10 9
22 20 22 22 21 21 18 18 15 18 17 20 15 16 12 12 10 10 9 9 9 7 5 5 4 3 2 2 2 4 4 5 6 6 6 6 8 9 10 9 9 10 10
22 21 22 24 23 21 19 20 16 18 16 19 18 15 14 11 11 9 12 10 9 8 7 5 4 3 1 2 2 3 5 5 6 6 7 7 8 8 10 11 11 11 10
21 22 19 21 22 18 16 17 17 18 17 19 18 18 16 13 12 12 10 9 8 7 6 5 3 2 1 2 3 4 6 6 7 7 8 8 9 9 10 11 11 12 9
18 19 19 20 22 23 17 13 18 17 18 18 16 16 13 14 14 14 10 11 8 7 7 4 3 2 1 3 4 5 7 7 7 8 8 9 9 9 9 10 10 11 10
16 18 19 20 22 21 17 19 17 19 18 15 12 10 12 7 9 11 10 8 7 6 7 4 2 1 2 4 4 5 6 7 7 9 9 9 9 9 10 11 11 12 12
18 20 18 18 20 20 16 19 19 17 17 15 12 11 12 10 11 11 9 7 7 6 5 4 2 1 2 3 5 6 7 7 8 8 9 9 9 9 10 10 10 11 13
17 13 14 17 16 18 15 19 20 18 17 15 13 11 8 12 12 11 10 10 8 6 6 4 3 1 3 5 6 7 8 8 7 7 9 10 9 10 9 9 10 10 10
16 13 14 16 17 17 17 17 20 22 21 15 15 10 12 13 12 11 10 9 8 7 5 3 1 2 3 5 6 7 7 7 8 9 9 10 12 9 10 9 10 8 11
12 13 16 18 21 20 20 19 17 19 17 16 12 13 11 14 13 12 11 9 8 5 4 3 1 1 3 5 5 6 7 8 9 9 10 11 9 12 12 10 12 8 13
12 14 16 19 20 22 21 22 20 20 18 16 16 14 14 15 14 12 11 8 7 5 4 3 1 1 2 4 4 5 6 8 9 9 10 11 12 13 11 12 10 11 10
14 16 18 19 19 20 21 22 20 17 18 17 16 15 17 15 13 11 10 8 6 5 4 3 1 1 3 3 4 5 7 8 9 10 11 12 13 13 13 13 15 13 13
15 17 19 18 20 21 22 21 21 20 19 19 19 18 15 13 12 11 9 7 6 5 4 4 4 3 2 2 5 7 8 9 10 10 11 11 13 15 14 10 11 12 12
19 20 20 21 22 23 22 21 20 19 20 20 19 18 14 13 12 11 9 8 7 6 4 5 4 4 4 10 7 6 8 9 9 10 10 12 14 14 12 12 10 11 14
20 21 23 22 20 21 20 21 19 18 19 20 19 17 14 15 13 11 10 9 8 7 7 6 5 3 11 8 5 5 7 7 7 8 9 11 10 14 12 12 12 15 14
19 20 20 21 22 23 22 20 20 20 19 20 20 16 14 14 13 12 10 9 7 7 7 5 3 3 1 5 3 5 8 7 7 8 11 12 13 11 12 14 16 14 14
22 18 18 20 20 22 20 20 21 20 21 20 18 15 14 13 12 12 11 10 8 6 6 5 5 4 1 9 1 7 8 8 10 10 12 13 13 14 16 15 16 15 14
19 17 19 20 22 22 22 22 21 21 20 18 16 15 13 13 13 12 10 8 8 7 5 5 4 6 3 9 7 8 6 8 8 10 12 10 13 12 15 14 14 14 12
17 17 20 17 18 21 21 22 20 19 17 15 16 15 15 14 13 12 10 9 8 7 6 6 4 3 4 4 6 3 6 7 9 9 9 8 14 13 21 21 12 12 12
16 14 17 17 18 20 19 19 19 16 17 16 16 16 14 11 11 12 10 9 9 8 6 4 3 2 2 2 2 4 6 8 9 10 9 11 20 24 22 16 13 14 10
10 13 16 16 15 19 19 21 19 20 18 16 16 15 13 11 12 10 11 7 8 7 6 4 3 2 1 2 5 5 7 9 8 9 13 20 21 19 12 11 14 9 6
14 14 19 20 18 18 19 19 18 17 16 15 12 12 11 10 9 7 7 7 6 5 5 4 2 1 2 2 3 5 6 6 6 8 11 12 12 11 8 7 7 6 6
13 14 15 16 17 17 16 17 16 17 15 14 10 9 8 7 10 8 6 6 6 5 6 5 3 2 3 2 4 6 7 8 7 9 8 7 9 9 8 8 8 7 6
13 14 16 17 18 18 17 15 15 16 18 14 11 10 9 7 6 8 6 7 6 6 4 2 2 2 5 8 9 10 11 12 12 8 7 8 7 8 8 8 8 8 6
Wind_Direction
256 233 205 195 218 198 183 186 182 176 163 161 153 163 163 158 155 156 162 148 148 137 166 129 147 178 64 44 19 325 329 315 4 311 327 315 279 316 304 349 335 309 319
233 236 203 196 210 202 196 188 186 162 165 169 170 171 162 164 156 150 156 143 150 151 140 139 146 36 125 96 32 4 344 329 5 335 313 333 299 7 348 326 320 309 340
237 221 223 187 201 211 199 191 182 166 164 178 161 161 149 151 157 156 154 155 148 140 137 141 103 121 21 80 23 11 359 336 330 349 309 326 333 322 318 321 309 338 322
245 233 211 192 202 209 197 188 178 172 181 177 165 167 170 169 173 169 155 150 148 146 137 123 109 73 84 73 14 39 337 324 318 329 330 315 302 311 310 307 308 307 307
240 237 211 199 201 204 191 186 192 179 177 176 172 172 178 180 163 160 150 150 149 152 152 142 132 129 24 55 332 326 327 316 320 320 313 310 300 301 303 304 308 308 305
235 236 218 206 191 196 185 180 192 179 174 178 177 182 178 162 165 159 163 157 159 156 148 149 157 139 14 318 311 318 304 307 306 296 296 300 308 306 303 301 306 301 298
223 233 223 208 186 188 175 178 194 171 179 181 176 181 169 165 165 162 166 161 163 164 153 170 175 221 318 297 301 306 306 294 290 305 303 303 297 302 297 296 296 300 301
219 225 225 214 188 182 169 181 191 174 172 173 161 147 151 160 164 177 155 165 161 156 133 170 204 259 300 301 307 307 291 298 298 300 296 298 297 295 298 299 302 300 300
240 212 220 220 188 172 167 178 185 168 164 154 151 148 173 162 162 145 150 143 131 129 153 168 211 231 284 321 324 300 300 299 301 303 295 295 301 300 295 298 299 299 302
239 210 209 212 178 170 167 177 179 165 159 150 151 154 153 154 145 147 150 148 137 140 159 163 172 271 318 319 309 295 300 308 307 299 307 304 299 303 303 294 296 306 319
236 199 203 191 182 166 175 180 182 162 162 148 152 141 149 146 149 149 147 145 145 153 162 164 170 300 322 311 298 299 300 304 308 309 303 306 305 305 307 307 298 300 292
226 194 196 184 175 174 176 177 176 163 156 150 142 145 144 151 150 150 149 147 148 150 161 172 190 328 311 298 311 306 322 313 310 312 311 310 313 308 303 297 306 318 296
202 187 192 188 182 177 177 176 177 164 154 152 148 153 157 156 153 149 147 155 152 156 161 142 140 308 303 293 308 311 320 316 314 308 312 308 310 308 306 320 320 299 301
197 186 192 187 188 184 178 176 174 165 157 154 158 160 162 152 145 147 148 148 149 152 150 141 147 214 256 284 331 340 338 319 316 316 316 313 312 331 330 314 309 311 307
198 194 194 188 190 188 180 181 175 170 165 162 165 162 151 141 140 145 143 137 146 140 155 163 171 194 231 37 13 348 325 320 316 321 320 313 330 320 292 299 309 308 302
196 198 195 193 193 190 184 181 176 170 168 168 164 154 144 141 148 144 143 144 144 153 165 174 165 190 84 82 65 354 313 316 322 318 316 314 309 299 328 304 297 292 299
204 199 198 194 191 189 183 178 173 166 172 168 156 151 151 147 147 146 146 146 157 150 166 172 188 192 111 85 41 349 309 319 324 317 312 309 308 314 308 309 302 297 280
213 210 202 191 191 184 181 174 168 171 170 167 156 153 149 147 145 148 149 157 154 174 175 137 124 169 190 80 293 316 304 327 316 306 311 305 309 311 315 315 306 299 288
230 223 205 187 180 175 174 167 167 169 173 163 156 149 145 141 148 150 158 160 157 153 157 161 174 206 150 160 86 340 340 330 326 320 311 314 310 310 311 304 300 297 293
211 213 188 187 176 168 168 165 166 172 164 160 150 139 136 146 156 159 156 150 161 157 166 161 149 115 132 106 64 16 335 324 318 311 313 303 293 292 302 302 300 298 301
209 210 179 174 174 161 163 162 162 163 148 142 139 137 151 154 147 154 161 166 155 158 149 150 157 124 74 63 74 354 329 330 324 318 319 309 296 318 309 302 295 291 304
209 181 159 159 161 155 153 152 156 142 144 149 140 144 146 148 155 165 159 159 151 148 148 149 129 122 30 95 267 226 271 310 314 314 310 300 325 307 299 298 291 291 293
130 138 142 139 138 148 151 156 152 154 148 140 138 144 144 155 158 151 152 152 148 153 146 154 135 93 39 311 187 242 281 303 306 310 303 311 303 297 299 298 306 305 299
144 139 143 146 150 153 153 159 142 136 139 132 131 143 144 147 141 142 148 146 149 153 145 137 139 169 283 299 327 331 328 317 313 312 311 296 294 286 301 315 318 317 311
137 152 148 142 143 150 139 133 143 138 128 117 135 134 132 142 145 147 147 144 149 147 156 153 164 195 252 275 336 307 313 318 314 309 297 314 325 324 328 330 325 320 318
139 136 140 146 151 132 135 138 147 140 130 145 148 150 142 138 146 139 119 61 96 125 104 100 199 234 254 289 291 300 304 300 307 307 309 318 322 315 324 324 324 320 320